Flagge von Kanada

Wetter-Rückblick Yellowknife, Nordwest-Territorien, Kanada – gestern, letzte Wochen & Monate

Currently: -4 °C. Niedrige Wolken. (Weather station: Yellowknife, Kanada). See more current weather

Wetter-Rückblick für Yellowknife — Graph

Temperatur gestern in Yellowknife

Höchsttemperatur gestern: -3 °C (um 00:00 Uhr)
Tiefsttemperatur gestern: -8 °C (um 17:00 Uhr)
Durchschnittstemperatur gestern: -6 °C

Tiefst- und Höchstwerte der vergangenen Wochen

 TemperaturLuftfeuchteDruck
Höchst1 °C (3. Dez, 17:00)100% (29. Nov, 21:00)1029 hPa (29. Nov, 21:00)
Tiefst-27 °C (21. Nov, 23:00)76% (21. Nov, 07:00)986 hPa (27. Nov, 01:00)
Durchschnitt-13 °C87%1008 hPa
* Abgerufen 20. Nov 03:00 — 5. Dez 03:31, Yellowknife. Wetterdaten von CustomWeather, © 2016

Hinweis: Spiegelt tatsächliche Extremwerte möglicherweise nicht korrekt wider, wenn diese zwischen den Ableseintervallen aufgetreten sind.

Yellowknife Wetterrückblick

Nach rechts scrollen
 WetterbedingungenBioklima  
Uhrzeit TempWetterWind LuftfeuchteBarometerSicht
03:31
Sa, 5. Dez
-4 °CNiedrige Wolken.11 km/h100%1009 hPa24 km
03:00-5 °CMeist bewölkt.6 km/h100%1009 hPa24 km
02:00-6 °CNiedrige Wolken.11 km/h100%1009 hPa24 km
01:52-6 °CNiedrige Wolken.9 km/h93%1009 hPa24 km
01:12-6 °CMeist bewölkt.7 km/h100%1010 hPa24 km
00:00-6 °CVorüberziehende Wolken.7 km/h100%1010 hPa24 km
23:00
Fr, 4. Dez
-7 °CNiedrige Wolken.7 km/h100%1010 hPa13 km
22:51-7 °CEisnebel.6 km/h93%1010 hPa6 km
22:00-7 °CEisnebel.7 km/h100%1010 hPa2 km
21:54-6 °CEisnebel.7 km/h93%1010 hPa2 km
21:41-7 °CEisnebel.6 km/h93%1010 hPa1 km
21:00-7 °CEisnebel.7 km/h93%1010 hPa0 km
20:48-7 °CEisnebel.6 km/h93%1010 hPa0 km
20:32-7 °CEisnebel.9 km/h100%1010 hPa1 km
20:19-8 °CEisnebel.9 km/h93%1011 hPa2 km
20:10-8 °CEisnebel.9 km/h93%1011 hPa3 km
19:00-7 °CVorüberziehende Wolken.4 km/h93%1011 hPa24 km
18:00-7 °CVorüberziehende Wolken.9 km/h93%1011 hPa24 km
17:00-8 °CVorüberziehende Wolken.9 km/h93%1011 hPa24 km
16:00-7 °CVorüberziehende Wolken.6 km/h93%1012 hPa24 km
15:00-6 °CWolkig.9 km/h100%1011 hPa24 km
14:00-4 °CWolkig.11 km/h93%1011 hPa24 km
13:00-6 °CWolkig.7 km/h93%1011 hPa24 km
12:00-6 °CWolkig.6 km/h86%1011 hPa24 km
11:00-5 °CTeilweise sonnig.7 km/h86%1011 hPa24 km
10:00-5 °CTeilweise sonnig.7 km/h86%1011 hPa24 km
09:00-6 °CVorüberziehende Wolken.9 km/h93%1011 hPa24 km
08:00-6 °CBedeckt.11 km/h93%1011 hPa24 km
07:00-6 °CBedeckt.4 km/h93%1011 hPa24 km
06:00-6 °CBedeckt.6 km/h93%1010 hPa24 km
05:00-6 °CVorüberziehende Wolken.4 km/h93%1010 hPa24 km
04:00-7 °CVorüberziehende Wolken.6 km/h93%1010 hPa24 km
Wetterdaten von CustomWeather, © 2020

Wetter-Übersicht